Activity Log for Feb, 26 2019

Back to Activity Log Search


Incident Time Nature Address
19F021539 00:00:03 40A AUDIBLE 32XX N CLINTON ST
19F021540 00:02:05 30 TRAFFIC STOP BROADWAY & W RUDISILL BLVD
19F021541 00:19:12 43 DISTURBANCE 55XX NORTHCREST DR
19F021542 00:36:29 63 CONTACT 33XX W COLISEUM BLVD
19F021543 00:38:22 30 TRAFFIC STOP WINTER ST & E RUDISILL BLVD
19F021544 00:38:56 99 NARCOTICS 33XX W COLISEUM BLVD
19F021545 00:45:36 30 TRAFFIC STOP W WILLIAMS ST & WEBSTER ST
19F021546 00:49:05 66 MENTALLY ILL 75XX WINCHESTER RD
19F021547 00:57:41 30 TRAFFIC STOP E COLISEUM BLVD & CRESCENT AVE
19F021548 01:05:47 103 UNWANTED 18XX W MAIN ST
19F021549 01:17:44 30 TRAFFIC STOP BLUFFTON RD & WINCHESTER RD
19F021550 01:20:55 30 TRAFFIC STOP E DEWALD ST & WARSAW ST
19F021551 01:21:26 63 CONTACT 7XX ROMY AVE
19F021553 01:27:24 40P PANIC ALARM 38XX E STATE BLVD
19F021552 01:27:29 50IP BURG I/P 9XX BUCHANAN ST
19F021554 01:35:37 48 SUSPICIOUS E MASTERSON AVE & S HANNA ST
19F021555 01:37:24 30 TRAFFIC STOP SCOTT AVE & BROADWAY
19F021556 01:40:45 30 TRAFFIC STOP HURD ST & BOWSER AVE
19F021557 01:50:00 30 TRAFFIC STOP 19XX BROADWAY
19F021558 01:55:09 40A AUDIBLE 32XX N CLINTON ST
19F021559 01:55:41 14S SERVING WAR 10XX STOPHLET ST
19F021560 02:15:39 30 TRAFFIC STOP W JEFFERSON BLVD & FAIRFIELD AVE
19F021561 02:18:59 30 TRAFFIC STOP LIMA RD & LIMA VALLEY DR
19F021563 02:21:07 48,36 33XX RAYMOND ST
19F021562 02:21:31 1 MEET 29XX GOSHEN RD
19F021564 02:30:33 911 HANG UP 10XX FRANKLIN AVE
19F021565 02:37:50 30 TRAFFIC STOP W COOK RD & DISALLE BLVD
19F021566 02:45:57 48 SUSPICIOUS 23XX OAKRIDGE RD
19F021568 02:49:17 44 NUISANCE 62XX ST JOE RD
19F021567 02:50:12 20 PROBLEM UNK 33XX W COLISEUM BLVD
19F021569 02:57:20 911 HANG UP 29XX GOSHEN RD
19F021570 03:13:01 48 SUSPICIOUS 33XX W COLISEUM BLVD
19F021571 03:25:21 25HS HIT SKIP 30XX KENBRIDGE CT
19F021572 03:39:16 43 DISTURBANCE 32XX N CLINTON ST
19F021573 03:46:08 20 PROBLEM UNK DECATUR RD & E TILLMAN RD
19F021574 03:48:43 103 UNWANTED 6XX W FOURTH ST
19F021575 03:54:20 48,36 30XX PRAIRIE GROVE DR
19F021576 03:58:52 101 OPEN DOOR 2XX W LEITH ST
19F021577 04:05:09 113 SHOTS FIRED 37XX GOEGLEIN RD
19F021578 04:08:20 23 VANDALISM 36XX HOLTON AVE
19F021579 04:31:10 50IP BURG I/P 6XX W FOURTH ST
19F021580 04:33:34 55 FIGHT 45XX OLD MILL RD
19F021581 04:35:38 25HS HIT SKIP CLAY ST & E WAYNE ST
19F021582 04:46:11 43 DISTURBANCE 38XX AVONDALE DR
19F021583 05:39:36 43,62 6XX W WAYNE ST
19F021585 05:41:08 48,35 15XX SHERMAN BLVD
19F021584 05:41:41 51,35 4XX W DEWALD ST
19F021586 05:43:31 25HS HIT SKIP ELIZABETH ST & SPY RUN AVE
19F021588 05:55:33 25HS HIT SKIP S LAFAYETTE ST & E LEWIS ST
19F021587 05:56:22 33,34 E FOURTH ST & N CLINTON ST
19F021589 06:00:55 43,62 37XX E WASHINGTON BLVD
19F021591 06:04:33 48,35 NEVADA AVE & KENTUCKY AVE
19F021590 06:06:04 30 TRAFFIC STOP S CALHOUN ST & E RUDISILL BLVD
19F021592 06:21:19 25 PD ACCIDENT 24XX EASTBROOK DR
19F021595 06:25:59 66 MENTALLY ILL 54XX ARCHWOOD LN
19F021593 06:26:13 15 ASSIST 312XX I 69 SB
19F021594 06:27:12 34 TRAFF HAZARD S CLINTON ST & E SUPERIOR ST
19F021598 06:35:49 63 CONTACT S HARRISON ST & W SUPERIOR ST
19F021596 06:37:07 23 VANDALISM 3XX E PAULDING RD
19F021597 06:41:41 64 NOT SEEN 20XX HOAGLAND AVE
19F021599 06:47:37 26 PI ACCIDENT E STATE BLVD & HOBSON DR
19F021600 06:51:11 66 MENTALLY ILL 3XX W SUPERIOR ST
19F021601 07:00:24 40A AUDIBLE 83XX CLINTON PARK DR
19F021602 07:06:26 129 29XX SHADY OAK DR
19F021603 07:06:44 129 29XX SHADY OAK DR
19F021610 07:11:17 18 WORK TRAFFIC E STATE BLVD & LAVERNE AVE
19F021609 07:11:59 18 WORK TRAFFIC TRIER RD & FERNBANK DR
19F021605 07:12:57 15 ASSIST 22XX S CALHOUN ST
19F021606 07:20:21 25 PD ACCIDENT 26XX LOWER HUNTINGTON RD
19F021607 07:23:29 41,36 42XX W WASHINGTON CENTER RD
19F021611 07:47:50 33,34 E WASHINGTON BLVD & GLASGOW AVE
19F021613 08:00:54 43 DISTURBANCE 20XX PAULINE ST
19F021614 08:02:22 29 SPECIAL ASGN 79XX DECATUR RD
19F021615 08:03:20 40A AUDIBLE 14XX E STATE BLVD
19F021616 08:08:00 103 UNWANTED 3XX E JEFFERSON BLVD
19F021617 08:10:49 96 BATTERY 53XX WHEELOCK RD
19F021618 08:10:49 46 DOMESTIC 37XX RUPP DR
19F021619 08:16:05 43 DISTURBANCE 72XX E STATE BLVD
19F021621 08:18:59 48 SUSPICIOUS S ANTHONY BLVD & E TILLMAN RD
19F021620 08:19:16 51 THEFT 59XX ILLINOIS RD
19F021622 08:20:11 30 TRAFFIC STOP COVINGTON RD & GETZ RD
19F021623 08:21:46 25 PD ACCIDENT 58XX W JEFFERSON BLVD
19F021624 08:24:15 43 DISTURBANCE 20XX PAULINE ST
19F021625 08:40:33 48 SUSPICIOUS 50XX HARMONY LN
19F021627 08:52:53 17 MOTOR CHECK 72XX ENGLE RD
19F021626 08:53:38 1 MEET 15XX HIGH ST
19F021628 09:05:28 43 DISTURBANCE 21XX ST MARYS AVE
19F021629 09:09:36 48 SUSPICIOUS 1XX E RUDISILL BLVD
19F021635 09:13:09 17 MOTOR CHECK XX E MAIN ST
19F021632 09:14:07 23 VANDALISM 54XX S ANTHONY BLVD
19F021630 09:14:47 37 PARKING VIOL 9XX LAKE AVE
19F021631 09:15:37 25HS HIT SKIP 9XX KINNAIRD AVE
19F021633 09:24:59 26HS PI HITSKIP S CLINTON ST & E WILLIAMS ST
19F021634 09:26:35 22I JUV INVEST 9XX LIBRARY PLAZA
19F021636 09:32:22 25 PD ACCIDENT XX E MAIN ST BLDG PG
19F021637 09:34:18 33,34 E STATE BLVD & GRANDEUR DR
19F021639 09:37:39 27 RECKLESS DRI W COLISEUM BLVD & NEWAYGO RD
19F021638 09:38:38 33,34 ABOITE CENTER RD & W JEFFERSON BLV
19F021641 09:41:19 40A AUDIBLE 15XX E BERRY ST
19F021640 09:41:41 14S SERVING WAR 8XX LAKE AVE
19F021642 09:50:56 108 FOLLOWUP 68XX WIMBERLY XING
19F021644 09:56:56 65T SUICIDE THR 69XX HUGUENARD RD APT 102
19F021643 09:57:12 96 BATTERY 10XX E COOK RD
19F021645 10:08:49 25 PD ACCIDENT N CLINTON ST & COLDWATER RD
19F021646 10:19:45 17 MOTOR CHECK 42XX W WASHINGTON CENTER RD
19F021647 10:27:20 20 PROBLEM UNK 68XX LAKE FOREST VILLAGE CIR
19F021648 10:28:57 63 CONTACT 29XX BLK WELLS ST
19F021649 10:46:18 22I JUV INVEST 21XX LAKE AVE
19F021650 10:55:36 46 DOMESTIC 4XX HUFFMAN ST
19F021651 10:58:50 51 THEFT 54XX MEIJER DR
19F021653 11:02:49 25 PD ACCIDENT COLDWATER RD & LUDWIG RD ACCESS
19F021652 11:05:46 47 REMOVE ITEMS 23XX WEATHER WOOD PL
19F021654 11:10:43 67 INDECENT 9XX LIBRARY PLAZA
19F021656 11:13:28 40A AUDIBLE 6XX FLORENCE AVE
19F021655 11:15:18 43 DISTURBANCE 29XX ENGLE RD
19F021657 11:21:03 17 MOTOR CHECK 21XX PAULINE ST
19F021658 11:21:42 17 MOTOR CHECK 93XX N CLINTON ST
19F021659 11:32:42 48 SUSPICIOUS 32XX S ANTHONY BLVD
19F021661 11:38:39 102,TX THREATS XX E MAIN ST
19F021660 11:41:25 129 81XX BECKETTS RIDGE LN
19F021662 11:53:35 46,96 10XX CROWDER CT
19F021663 11:54:02 63 CONTACT 37XX EUCLID AVE
19F021664 11:57:25 48 SUSPICIOUS 27XX CORVALIS AVE
19F021665 12:05:37 66 72 HOUR 79XX W JEFFERSON BLVD
19F021666 12:10:40 51 THEFT 7XX PETAL WAY
19F021667 12:16:11 46 DOMESTIC 8XX PUTNAM ST
19F021668 12:17:59 43 DISTURBANCE 86XX LAKESIDE DR
19F021669 12:22:04 17 MOTOR CHECK 80XX BLUFFTON RD
19F021670 12:23:27 51 THEFT 2XX E WASHINGTON BLVD
19F021672 12:30:00 1 MEET 62XX ST JOE RD APT 303
19F021671 12:31:49 51 THEFT 6XX W STATE BLVD
19F021674 12:32:29 25 PD ACCIDENT SPY RUN AVE & E STATE BLVD
19F021673 12:33:12 23,35 VAND VEH 45XX CRAFTSBURY CIR
19F021675 12:33:32 63 CONTACT 43XX HESSEN CASSEL RD
19F021676 12:37:52 55 FIGHT N CLINTON ST & RIDGEWOOD DR
19F021697 12:37:56 51 THEFT 36XX E DUPONT RD
19F021677 12:43:01 51 THEFT 79XX SHADY LAKE CT
19F021678 12:44:34 43 DISTURBANCE 9XX LIBRARY PLAZA
19F021681 12:47:02 50,ATTEMPTED XX COUNTRY FOREST DR
19F021680 12:53:49 99 NARCOTICS 62XX NINA DR
19F021679 12:53:50 48 SUSPICIOUS 1XX ELLIOT WOOD PL
19F021682 13:06:09 43 DISTURBANCE 58XX TURTLE CREEK DR
19F021688 13:08:32 25HS HIT SKIP 35XX WARSAW ST APT 10B
19F021684 13:09:28 47 REMOVE ITEMS 32XX E WASHINGTON BLVD
19F021691 13:11:35 63 CONTACT 67XX JOHN ST
19F021683 13:11:57 51 THEFT 21XX SHERMAN BLVD
19F021685 13:14:03 40A AUDIBLE 47XX HARTMAN RD
19F021687 13:15:01 40A AUDIBLE 105XX UNITA DR
19F021686 13:15:26 103 UNWANTED 70XX COLDWATER RD
19F021689 13:22:39 17 MOTOR CHECK 80XX LAWTON OAKS CT
19F021690 13:27:41 51 THEFT 29XX EUCLID AVE
19F021694 13:46:06 51JO 75XX SOUTHTOWN XING
19F021695 13:59:11 101 OPEN DOOR 11XX KINSMOOR AVE
19F021696 13:59:59 55 FIGHT 4XX E STATE BLVD
19F021701 14:02:12 66 MENTALLY ILL 3XX E SUPERIOR ST
19F021698 14:04:22 103 UNWANTED 9XX LIBRARY PLAZA
19F021699 14:05:21 43 DISTURBANCE 13XX GOSHEN AVE
19F021700 14:07:35 30 TRAFFIC STOP SHERMAN BLVD & TRICK AVE
19F021716 14:08:30 18 WORK TRAFFIC E STATE BLVD & LAVERNE AVE
19F021717 14:08:57 18 WORK TRAFFIC TRIER RD & FERNBANK DR
19F021702 14:11:14 63 CONTACT 61XX ROCK CREEK PL
19F021704 14:14:09 39 STOLEN VEHIC 27XX SWIFT DR
19F021703 14:14:40 25 PD ACCIDENT DAWSONS CREEK BLVD & W DUPONT RD
19F021715 14:15:45 1 MEET 98XX COLDWATER RD
19F021705 14:16:22 30 TRAFFIC STOP S ANTHONY BLVD & E PETTIT AVE
19F021707 14:17:36 51 THEFT 10XX FRANKLIN AVE
19F021706 14:17:51 30 TRAFFIC STOP FAIRFIELD AVE & BASS ST
19F021708 14:21:59 51JO 27XX MAPLECREST RD
19F021709 14:31:00 129 16XX EMERSON AVE
19F021710 14:31:01 48,36 58XX S HARRISON ST
19F021712 14:36:02 30 TRAFFIC STOP LAKE AVE & TECUMSEH ST
19F021713 14:38:02 30 TRAFFIC STOP W WILLIAMS ST & FAIRFIELD AVE
19F021714 14:39:03 51 THEFT 8XX E WASHINGTON BLVD
19F021718 14:42:39 30 TRAFFIC STOP FAIRFIELD AVE & W DEWALD ST
19F021719 14:43:54 30 TRAFFIC STOP E RUDISILL BLVD & S CLINTON ST
19F021720 14:45:53 55 FIGHT S COLISEUM BLVD & NEW HAVEN AVE
19F021722 14:49:20 43 DISTURBANCE MCKINNIE AVE & OLIVER ST
19F021721 14:50:04 30 TRAFFIC STOP 12XX GOSHEN AVE
19F021725 14:52:56 46,96 1XX W BAKER ST
19F021723 14:53:21 1 MEET BOWSER AVE & SENATE AVE
19F021724 14:54:48 43 DISTURBANCE 58XX ILLINOIS RD
19F021726 15:00:08 30 TRAFFIC STOP S ANTHONY BLVD & VENTURA LN
19F021728 15:02:04 50 BURGLARY XX COUNTRY FOREST DR
19F021727 15:02:11 30 TRAFFIC STOP 29XX I 469 NB
19F021729 15:07:28 30 TRAFFIC STOP MAPLECREST RD & LAKE AVE
19F021730 15:08:21 25 PD ACCIDENT S CALHOUN ST & E BAKER ST
19F021731 15:15:51 48,36 53XX ROTHERMERE DR
19F021732 15:18:48 30 TRAFFIC STOP W MASTERSON AVE & FAIRFIELD AVE
19F021733 15:20:00 48 SUSPICIOUS MAPLECREST RD & LAKE AVE
19F021734 15:28:47 1 MEET 40XX HEDWIG DR
19F021735 15:38:15 30 TRAFFIC STOP 32XX E WASHINGTON BLVD
19F021736 15:39:01 30 TRAFFIC STOP ST JOE RD & ACADEMIC PL
19F021737 15:39:07 30 TRAFFIC STOP ST JOE RD & ACADEMIC PL
19F021738 15:41:28 30 TRAFFIC STOP W COLISEUM BLVD & INVESTMENT DR
19F021740 15:43:23 50JO 50XX ANN HACKLEY RD
19F021739 15:43:35 15 ASSIST 19XX THIRD ST
19F021741 15:46:37 30 TRAFFIC STOP S CLINTON ST & E DOUGLAS AVE
19F021742 15:48:29 23,113 30XX REED ST
19F021743 15:49:33 103 UNWANTED 23XX GAY ST
19F021749 15:50:19 33,34 CARROLL RD & SR 3
19F021745 15:52:06 25HS HIT SKIP 302XX I 69 SB
19F021744 15:52:30 17 MOTOR CHECK 102XX COLDWATER RD
19F021746 15:59:08 30 TRAFFIC STOP FAIRFIELD AVE & PIERCE AVE
19F021747 16:01:34 14S SERVING WAR 3XX W OAKDALE DR
19F021748 16:03:07 33,34 CARROLL RD & SR 3
19F021750 16:04:49 30 TRAFFIC STOP FAIRFIELD AVE & BEECHWOOD DR
19F021752 16:06:58 63 CONTACT 6XX CANDLELITE CT
19F021751 16:08:14 56 MOLESTING 27XX E STATE BLVD
19F021753 16:13:10 30 TRAFFIC STOP HOBSON RD & TRIER RD
19F021754 16:15:05 34 TRAFF HAZARD 305XX I 69 SB
19F021755 16:16:47 63 CONTACT 17XX LATHROP DR
19F021757 16:17:23 27 RECKLESS DRI ARDMORE AVE & W JEFFERSON BLVD
19F021756 16:21:43 30 TRAFFIC STOP E COLISEUM BLVD & W CAMPUS DR
19F021758 16:21:57 96 BATTERY 28XX DUPONT COMMERCE CT
19F021759 16:27:50 33,34 ILLINOIS RD & GETZ RD
19F021761 16:28:58 46 DOMESTIC 83XX TEWKSBURY CT
19F021760 16:29:17 1 MEET 10XX S CLINTON ST
19F021762 16:29:59 41,36 HILLEGAS RD & BUTLER RD
19F021763 16:31:17 83 INFO REPORT 46XX BLUE WATER CT
19F021764 16:32:34 41,36 67XX E STATE BLVD
19F021766 16:34:57 46 DOMESTIC 35XX MEDA PASS
19F021765 16:36:28 40A AUDIBLE 69XX SELKIRK DR
19F021767 16:38:08 50 BURGLARY 44XX QUEEN ST
19F021768 16:40:52 30 TRAFFIC STOP FAIRFIELD AVE & W DEWALD ST
19F021769 16:40:56 30 TRAFFIC STOP CRESCENT AVE & CLARA AVE
19F021770 16:41:35 34 TRAFF HAZARD E STATE BLVD & CRESCENT AVE
19F021771 16:43:03 48,36 42XX COLDWATER RD
19F021772 16:44:29 40A AUDIBLE 2XX W RUDISILL BLVD
19F021792 16:50:47 22RN RUNAWAY 39XX WHITFIELD CHASE
19F021773 16:52:06 63 CONTACT 37XX TRACE CIR
19F021775 16:59:23 48 SUSPICIOUS 48XX SOUTH PARK DR
19F021774 17:00:05 30 TRAFFIC STOP E PONTIAC ST & S CLINTON ST
19F021777 17:01:49 66V MENTAL VIOL 12XX SEDDLEMEYER AVE
19F021776 17:02:03 51 THEFT 28XX DUPONT COMMERCE CT
19F021778 17:04:13 17 MOTOR CHECK 31XX COVINGTON RD
19F021779 17:07:37 17 MOTOR CHECK 46XX FAIRFIELD AVE
19F021784 17:08:18 63 CONTACT 27XX NORTHGATE BLVD STE 4
19F021783 17:11:46 27 RECKLESS DRI STELLHORN RD & ST JOE RD
19F021780 17:13:04 25HS HIT SKIP S LAFAYETTE ST & E PONTIAC ST
19F021781 17:13:13 65T SUICIDE THR 3XX W SUPERIOR ST
19F021782 17:16:03 26 PI ACCIDENT LIMA RD & PRODUCTION RD
19F021790 17:17:10 102,TX THREATS 30XX S HANNA ST
19F021785 17:19:04 14S SERVING WAR 43XX WEISSER PARK AVE
19F021794 17:22:33 51 THEFT 7XX W DEWALD ST
19F021786 17:22:42 51 THEFT 37XX E DUPONT RD
19F021787 17:26:52 30 TRAFFIC STOP S CALHOUN ST & W PONTIAC ST
19F021789 17:27:19 51 THEFT 57XX E YMCA PARK DR
19F021788 17:28:11 51 THEFT 57XX E YMCA PARK DR
19F021791 17:32:27 43 DISTURBANCE 37XX LILLIE ST
19F021793 17:43:55 101 OPEN DOOR 22XX OPECHEE WAY
19F021795 17:45:12 40A AUDIBLE 45XX DOENGES DR
19F021796 17:47:42 911 HANG UP 59XX WINTER ST
19F021797 17:49:04 43 DISTURBANCE 46XX E WASHINGTON BLVD
19F021798 17:52:12 101 OPEN DOOR 79XX DECATUR RD
19F021799 17:58:32 40 ALARM 4XX W FERNHILL AVE
19F021838 18:06:09 51 THEFT 3XX W CREIGHTON AVE
19F021800 18:06:43 25HS HIT SKIP S LAFAYETTE ST & E TABER ST
19F021802 18:13:19 911 HANG UP 2XX PUTNAM ST
19F021801 18:13:20 20 PROBLEM UNK 17XX FOREST VALLEY DR
19F021806 18:15:27 22I JUV INVEST 65XX E STATE BLVD
19F021816 18:20:01 17 MOTOR CHECK 19XX CHARTWELL DR
19F021804 18:21:06 40A AUDIBLE 33XX CAVALIER DR
19F021803 18:21:34 23JO 9XX FULTON ST
19F021805 18:23:18 30 TRAFFIC STOP E WALLEN RD & AUBURN RD
19F021807 18:24:16 51JO 60XX ST JOE CENTER RD
19F021808 18:27:30 99 NARCOTICS XX E MAIN ST
19F021809 18:32:33 43 DISTURBANCE 51XX ILLINOIS RD
19F021810 18:34:52 22I JUV INVEST 33XX EUCLID AVE
19F021811 18:39:22 46 DOMESTIC 1XX COUNTRY FOREST DR
19F021812 18:44:15 51 THEFT 50XX ANN HACKLEY RD
19F021813 18:44:22 30 TRAFFIC STOP E STATE BLVD & HOBSON RD
19F021814 18:44:43 40H HOLDUP ALRM 76XX OPPORTUNITY DR
19F021815 18:45:35 101 OPEN DOOR 4XX FRENCH AVE
19F021817 18:49:39 58 SHOOTING SMITH ST & SENATE AVE
19F021819 18:49:48 30 TRAFFIC STOP S CALHOUN ST & E BERRY ST
19F021818 18:50:57 38 LOST/STOLEN 17XX S ANTHONY BLVD
19F021820 18:56:20 48 SUSPICIOUS INDEPENDENCE DR & HILLEGAS RD
19F021821 18:59:09 48,36 85XX SPRING FOREST DR
19F021822 18:59:13 25HS HIT SKIP FULTON ST & W WASHINGTON BLVD
19F021826 19:02:02 96JO 76XX HOPE DR
19F021823 19:05:05 43 DISTURBANCE 15XX W TILL RD
19F021824 19:05:15 26 PI ACCIDENT E STATE BLVD & CRESCENT AVE
19F021825 19:05:16 34 TRAFF HAZARD EASTBROOK DR & OAKRIDGE RD
19F021827 19:09:43 22RN RUNAWAY 9XX E COOK RD
19F021828 19:19:06 34 TRAFF HAZARD 313XX I 69 SB
19F021829 19:26:09 48 SUSPICIOUS 29XX NEW HAVEN AVE
19F021830 19:27:34 103 UNWANTED 3XX E WASHINGTON BLVD
19F021831 19:27:41 48,36 22XX LOWER HUNTINGTON RD
19F021832 19:36:21 30 TRAFFIC STOP LIMA RD & NORTHLAND BLVD
19F021835 19:37:36 48 SUSPICIOUS 11XX KINSMOOR AVE
19F021833 19:37:45 30 TRAFFIC STOP W BERRY ST & FULTON ST
19F021834 19:38:50 43 DISTURBANCE 42XX COLDWATER RD
19F021836 19:46:04 51 THEFT 28XX DUPONT COMMERCE CT
19F021837 19:51:38 129 51XX CHRISTOFER LN
19F021839 19:53:46 55 FIGHT 46XX HESSEN CASSEL RD
19F021840 19:54:39 48,36 20XX ST LOUIS AVE
19F021841 20:02:37 33,34 ILLINOIS RD & S HADLEY RD
19F021842 20:05:53 25 PD ACCIDENT LIMA RD & ORLANDO DR
19F021843 20:07:30 30 TRAFFIC STOP 3XX E COOK RD
19F021844 20:08:29 96JO 36XX CHEVIOT DR
19F021845 20:17:25 63Z ZACH CHECK 14XX E PAULDING RD
19F021846 20:17:33 46 DOMESTIC 12XX HIGH ST
19F021860 20:25:17 46 DOMESTIC 82XX WELSCH DR
19F021847 20:27:12 66 MENTALLY ILL 9XX PEMBERTON DR
19F021848 20:33:38 20 PROBLEM UNK 23XX SANTA ROSA DR
19F021849 20:34:05 37 PARKING VIOL 74XX MAPLECREST RD
19F021864 20:35:26 44LM 29XX WHITE OAK AVE
19F021850 20:39:42 48,36 31XX WELLS ST LOT 23
19F021851 20:39:48 65T SUICIDE THR 35XX W COLISEUM BLVD
19F021852 20:45:21 103 UNWANTED 27XX MAPLECREST RD
19F021853 20:47:05 1 MEET 16XX SPY RUN AVE
19F021855 20:47:48 43 DISTURBANCE 47XX MANISTEE DR
19F021854 20:48:53 129 53XX BUELL DR
19F021856 20:49:11 19 ESCORT 79XX W JEFFERSON BLVD
19F021857 20:55:26 113 SHOTS FIRED SMITH ST & E PONTIAC ST
19F021868 20:58:27 102 THREATS 37XX GAYWOOD DR
19F021859 20:58:50 48,35 XX E MAIN ST BLDG PG
19F021858 20:59:49 48,35 46XX WARSAW ST
19F021867 21:01:38 102,TX THREATS 21XX EDEN ST
19F021861 21:04:06 48,36 39XX HESSEN CASSEL RD
19F021862 21:06:03 30 TRAFFIC STOP S HANNA ST & ECKART ST
19F021863 21:10:06 40P PANIC ALARM 12XX ELIZA ST
19F021866 21:12:49 911 HANG UP 46XX E WASHINGTON BLVD
19F021865 21:15:10 40A AUDIBLE 100XX DUPONT CIRCLE CT
19F021869 21:19:57 30 TRAFFIC STOP E RUDISILL BLVD & S ANTHONY BLVD
19F021870 21:25:51 30 TRAFFIC STOP 27XX WINTER ST
19F021871 21:30:11 30 TRAFFIC STOP PROGRESS RD & LIMA RD
19F021873 21:38:46 11C CAGE CAR XX E MAIN ST
19F021872 21:39:55 96JO N LIMA LN & LIMA LN
19F021885 21:39:55 108 FOLLOWUP 26XX E PONTIAC ST
19F021874 21:47:27 46 DOMESTIC 83XX TEWKSBURY CT
19F021875 21:51:48 41 MAN DOWN 19XX E FAIRFAX AVE
19F021876 21:53:23 51 THEFT 31XX W COLISEUM BLVD
19F021877 22:01:42 48,36 44XX S CALHOUN ST
19F021879 22:07:31 63 CONTACT 65XX BAY TREE DR
19F021878 22:09:23 53 ARMED ROB 14XX ST JOSEPH BLVD
19F021881 22:13:51 22I JUV INVEST 4XX E RUDISILL BLVD
19F021880 22:14:19 30 TRAFFIC STOP S LAFAYETTE ST & DECATUR RD
19F021882 22:16:30 25 PD ACCIDENT 3XX E COLISEUM BLVD
19F021883 22:17:30 30 TRAFFIC STOP FAIRFIELD AVE & W PAULDING RD
19F021886 22:22:14 40A AUDIBLE 53XX N STONY RUN LN
19F021884 22:24:28 48 SUSPICIOUS S ANTHONY BLVD & E WAYNE ST
19F021887 22:27:03 48 SUSPICIOUS 43XX WEISSER PARK AVE
19F021888 22:34:19 EMS 4XX GREENWOOD AVE
19F021889 22:46:32 101 OPEN DOOR 9XX N ANTHONY BLVD
19F021890 22:47:34 96JO 52XX MCCLELLAN ST
19F021891 22:49:44 25 PD ACCIDENT CONSTITUTION DR & GETZ RD
19F021892 22:49:48 96JO 41XX HOAGLAND AVE
19F021893 23:00:14 29 SPECIAL ASGN 79XX DECATUR RD
19F021895 23:00:19 46 DOMESTIC 19XX S LAFAYETTE ST
19F021894 23:00:48 30 TRAFFIC STOP HILLEGAS RD & WASHINGTON CT
19F021896 23:04:45 22I JUV INVEST 4XX E SUTTENFIELD AVE
19F021899 23:05:58 25 PD ACCIDENT LEESBURG RD & FLAUGH RD
19F021897 23:16:04 101 OPEN DOOR 79XX DECATUR RD
19F021898 23:21:33 46 DOMESTIC 51XX OLD MAYSVILLE RD
19F021900 23:27:27 30 TRAFFIC STOP WARSAW ST & RICHARDSVILLE AVE
19F021901 23:30:41 911 HANG UP 35XX WAYNE TRACE
19F021902 23:31:18 EMS 46XX E WASHINGTON BLVD
19F021903 23:39:06 51,35 2XX THIRD ST
19F021904 23:40:50 33 DISABLED VEH W STATE BLVD & ST MARYS AVE
19F021905 23:48:47 46,96 59XX ILLINOIS RD
19F021906 23:51:58 66 MENTALLY ILL 9XX E WASHINGTON BLVD
19F021907 23:58:12 30 TRAFFIC STOP GOSHEN RD & W COLISEUM BLVD